パンスターズ彗星

P/2014 U4 ( PanSTARRS )

English version
Home page
Updated on June 11, 2016

---------------------------------------------------------------------

・ プロフィール

発見日 2014年10月28日
発見光度 20.7等
発見者 Pan-STARRS 1 telescope (Haleakala)

・ 写真集

・ 軌道要素

Epoch 2014 Aug. 11.0 TT = JDT 2456880.5
T 2014 Aug. 3.92209 TT                                  MPCW
q   1.8433745            (2000.0)            P               Q
n   0.15148324     Peri.  347.72764     +0.99971076     +0.00526693
a   3.4851890      Node    12.04469     +0.00707220     +0.86820408
e   0.4710833      Incl.    6.45678     -0.02298670     +0.49617933
P   6.51
From 61 observations 2014 Sept. 2-Nov. 17, mean residual 0".5.

・ 光度変化

        m1 = 17.0 + 5 logΔ + 10.0 log r

---------------------------------------------------------------------

軌道要素はM.P.E.C. 2014-X44に掲載されたものです。
光度グラフはComet for Windowsで作成したものです。

---------------------------------------------------------------------

Copyright(C) Seiichi Yoshida (comet@aerith.net). All rights reserved.